H1 CPF 2 NER 2025 9 15 9 258 01 glonass146 H2 2216101 9146 54377 2025 9 15 0 0 0 2025 9 18 23 45 0 900 1 1 0 0 0 1 H9 10 0 60933 0.00000 0 23108648.563 8795164.311 6200747.023 10 0 60933 900.00000 0 23686403.734 8908768.291 3048506.296 10 0 60933 1800.00000 0 23906872.222 8834555.119 -163086.535 10 0 60933 2700.00000 0 23745181.592 8622214.175 -3371500.697 10 0 60933 3600.00000 0 23189125.455 8325982.381 -6514244.397 10 0 60933 4500.00000 0 22239784.631 8002114.863 -9530093.822 10 0 60933 5400.00000 0 20911604.976 7706277.509 -12360297.823 10 0 60933 6300.00000 0 19231927.754 7490973.442 -14949733.491 10 0 60933 7200.00000 0 17239991.906 7403114.037 -17247988.893 10 0 60933 8100.00000 0 14985450.119 7481838.645 -19210350.971 10 0 60933 9000.00000 0 12526461.177 7756676.481 -20798678.859 10 0 60933 9900.00000 0 9927439.055 8246129.125 -21982145.416 10 0 60933 10800.00000 0 7256553.375 8956733.994 -22737832.778 10 0 60933 11700.00000 0 4583086.025 9882648.425 -23051170.881 10 0 60933 12600.00000 0 1974754.425 11005771.789 -22916211.171 10 0 60933 13500.00000 0 -504887.234 12296400.208 -22335731.087 10 0 60933 14400.00000 0 -2798861.145 13714385.987 -21321168.221 10 0 60933 15300.00000 0 -4858893.980 15210752.642 -19892386.310 10 0 60933 16200.00000 0 -6647172.788 16729697.421 -18077278.403 10 0 60933 17100.00000 0 -8137657.389 18210897.061 -15911215.516 10 0 60933 18000.00000 0 -9316896.588 19592019.967 -13436352.014 10 0 60933 18900.00000 0 -10184316.412 20811339.508 -10700801.501 10 0 60933 19800.00000 0 -10751970.593 21810339.037 -7757699.457 10 0 60933 20700.00000 0 -11043765.897 22536199.675 -4664170.914 10 0 60933 21600.00000 0 -11094196.771 22944066.915 -1480223.255 10 0 60933 22500.00000 0 -10946644.045 22999001.449 1732414.517 10 0 60933 23400.00000 0 -10651310.489 22677532.807 4911483.599 10 0 60933 24300.00000 0 -10262880.942 21968751.056 7995395.524 10 0 60933 25200.00000 0 -9838005.951 20874891.023 10924417.724 10 0 60933 26100.00000 0 -9432715.033 19411384.599 13641822.070 10 0 60933 27000.00000 0 -9099868.266 17606378.691 16094974.816 10 0 60933 27900.00000 0 -8886753.215 15499738.363 18236347.633 10 0 60933 28800.00000 0 -8832927.932 13141575.970 20024430.965 10 0 60933 29700.00000 0 -8968400.485 10590366.358 21424532.852 10 0 60933 30600.00000 0 -9312221.518 7910725.195 22409448.509 10 0 60933 31500.00000 0 -9871549.262 5170941.252 22959988.184 10 0 60933 32400.00000 0 -10641226.924 2440363.514 23065353.354 10 0 60933 33300.00000 0 -11603891.334 -213249.991 22723353.893 10 0 60933 34200.00000 0 -12730609.694 -2726312.969 21940461.529 10 0 60933 35100.00000 0 -13982019.479 -5041815.247 20731697.772 10 0 60933 36000.00000 0 -15309925.446 -7111451.752 19120357.334 10 0 60933 36900.00000 0 -16659288.471 -8897387.997 17137571.098 10 0 60933 37800.00000 0 -17970524.179 -10373588.765 14821715.710 10 0 60933 38700.00000 0 -19182015.847 -11526654.559 12217679.872 10 0 60933 39600.00000 0 -20232736.413 -12356130.640 9376000.472 10 0 60933 40500.00000 0 -21064869.177 -12874275.589 6351884.533 10 0 60933 41400.00000 0 -21626316.162 -13105299.073 3204135.582 10 0 60933 42300.00000 0 -21872987.249 -13084101.063 -5994.545 10 0 60933 43200.00000 0 -21770772.056 -12854566.184 -3216005.577 10 0 60933 44100.00000 0 -21297109.683 -12467486.003 -6363376.078 10 0 60933 45000.00000 0 -20442088.413 -11978198.256 -9386792.947 10 0 60933 45900.00000 0 -19209027.490 -11444044.261 -12227357.828 10 0 60933 46800.00000 0 -17614515.188 -10921753.644 -14829745.614 10 0 60933 47700.00000 0 -15687900.769 -10464868.602 -17143291.223 10 0 60933 48600.00000 0 -13470261.181 -10121318.056 -19122982.576 10 0 60933 49500.00000 0 -11012885.780 -9931245.448 -20730339.900 10 0 60933 50400.00000 0 -8375342.750 -9925182.734 -21934164.039 10 0 60933 51300.00000 0 -5623208.389 -10122648.134 -22711139.404 10 0 60933 52200.00000 0 -2825554.427 -10531226.800 -23046280.407 10 0 60933 53100.00000 0 -52298.356 -11146172.903 -22933213.370 10 0 60933 54000.00000 0 2628472.910 -11950549.371 -22374289.386 10 0 60933 54900.00000 0 5153095.056 -12915898.743 -21380526.814 10 0 60933 55800.00000 0 7464726.970 -14003416.224 -19971385.447 10 0 60933 56700.00000 0 9515461.248 -15165574.966 -18174377.491 10 0 60933 57600.00000 0 11268058.289 -16348134.741 -16024523.557 10 0 60933 58500.00000 0 12697233.588 -17492449.168 -13563664.745 10 0 60933 59400.00000 0 13790446.600 -18537974.370 -10839644.507 10 0 60933 60300.00000 0 14548160.441 -19424873.592 -7905376.393 10 0 60933 61200.00000 0 14983563.666 -20096608.439 -4817815.918 10 0 60933 62100.00000 0 15121767.838 -20502408.087 -1636856.511 10 0 60933 63000.00000 0 14998516.295 -20599513.040 1575829.108 10 0 60933 63900.00000 0 14658459.754 -20355099.469 4757979.776 10 0 60933 64800.00000 0 14153072.295 -19747803.637 7847946.150 10 0 60933 65700.00000 0 13538295.999 -18768782.542 10785877.541 10 0 60933 66600.00000 0 12872013.549 -17422266.290 13514872.792 10 0 60933 67500.00000 0 12211455.067 -15725578.731 15982073.603 10 0 60933 68400.00000 0 11610647.889 -13708624.864 18139679.915 10 0 60933 69300.00000 0 11118016.037 -11412865.489 19945868.471 10 0 60933 70200.00000 0 10774229.765 -8889820.618 21365597.640 10 0 60933 71100.00000 0 10610395.154 -6199162.398 22371283.628 10 0 60933 72000.00000 0 10646659.610 -3406475.190 22943335.528 10 0 60933 72900.00000 0 10891291.980 -580774.061 23070539.113 10 0 60933 73800.00000 0 11340276.464 2208117.123 22750281.889 10 0 60933 74700.00000 0 11977438.286 4892220.733 21988614.594 10 0 60933 75600.00000 0 12775097.105 7407984.771 20800147.165 10 0 60933 76500.00000 0 13695222.198 9698680.547 19207780.088 10 0 60933 77400.00000 0 14691042.394 11716519.623 17242275.005 10 0 60933 78300.00000 0 15709044.465 13424402.238 14941671.536 10 0 60933 79200.00000 0 16691277.015 14797224.353 12350560.230 10 0 60933 80100.00000 0 17577863.486 15822688.472 9519224.658 10 0 60933 81000.00000 0 18309618.511 16501584.052 6502668.491 10 0 60933 81900.00000 0 18830656.821 16847525.521 3359546.047 10 0 60933 82800.00000 0 19090883.604 16886158.822 151017.217 10 0 60933 83700.00000 0 19048259.754 16653870.195 -3060450.412 10 0 60933 84600.00000 0 18670744.657 16196052.146 -6212308.044 10 0 60933 85500.00000 0 17937832.644 15565000.776 -9243155.589 10 0 60934 0.00000 0 16841616.622 14817534.558 -12093949.516 10 0 60934 900.00000 0 15387331.831 14012436.206 -14709165.219 10 0 60934 1800.00000 0 13593357.098 13207828.279 -17037886.268 10 0 60934 2700.00000 0 11490670.762 12458593.466 -19034803.489 10 0 60934 3600.00000 0 9121784.989 11813950.701 -20661099.986 10 0 60934 4500.00000 0 6539202.471 11315289.865 -21885206.214 10 0 60934 5400.00000 0 3803460.259 10994356.950 -22683410.334 10 0 60934 6300.00000 0 980842.600 10871866.160 -23040312.491 10 0 60934 7200.00000 0 -1859141.628 10956597.050 -22949114.896 10 0 60934 8100.00000 0 -4646411.795 11245014.008 -22411742.973 10 0 60934 9000.00000 0 -7312988.535 11721423.136 -21438796.146 10 0 60934 9900.00000 0 -9795576.213 12358658.901 -20049330.123 10 0 60934 10800.00000 0 -12037948.358 13119270.651 -18270475.680 10 0 60934 11700.00000 0 -13993038.044 13957158.114 -16136902.011 10 0 60934 12600.00000 0 -15624647.741 14819586.343 -13690135.567 10 0 60934 13500.00000 0 -16908709.195 15649494.749 -10977747.951 10 0 60934 14400.00000 0 -17834042.726 16388002.726 -8052428.853 10 0 60934 15300.00000 0 -18402586.226 16977006.269 -4970962.159 10 0 60934 16200.00000 0 -18629086.230 17361756.339 -1793125.103 10 0 60934 17100.00000 0 -18540265.775 17493310.617 1419468.225 10 0 60934 18000.00000 0 -18173505.468 17330755.698 4604556.736 10 0 60934 18900.00000 0 -17575094.293 16843106.477 7700432.738 10 0 60934 19800.00000 0 -16798124.420 16010802.995 10647130.003 10 0 60934 20700.00000 0 -15900118.867 14826741.842 13387576.979 10 0 60934 21600.00000 0 -14940491.694 13296798.549 15868693.456 10 0 60934 22500.00000 0 -13977947.146 11439818.449 18042410.239 10 0 60934 23400.00000 0 -13067926.438 9287075.469 19866592.871 10 0 60934 24300.00000 0 -12260208.714 6881220.128 21305852.371 10 0 60934 25200.00000 0 -11596766.189 4274758.993 22332228.031 10 0 60934 26100.00000 0 -11109962.942 1528127.069 22925729.592 10 0 60934 27000.00000 0 -10821172.630 -1292568.708 23074728.581 10 0 60934 27900.00000 0 -10739873.101 -4118043.126 22776191.200 10 0 60934 28800.00000 0 -10863256.313 -6878461.798 22035747.827 10 0 60934 29700.00000 0 -11176370.640 -9506098.177 20867596.999 10 0 60934 30600.00000 0 -11652790.612 -11937909.427 19294244.660 10 0 60934 31500.00000 0 -12255787.131 -14117924.903 17346082.419 10 0 60934 32400.00000 0 -12939950.077 -15999348.341 15060811.597 10 0 60934 33300.00000 0 -13653196.072 -17546286.182 12482722.884 10 0 60934 34200.00000 0 -14339077.417 -18735029.653 9661844.427 10 0 60934 35100.00000 0 -14939295.104 -19554836.565 6652974.097 10 0 60934 36000.00000 0 -15396309.500 -20008179.619 3514614.261 10 0 60934 36900.00000 0 -15655937.616 -20110450.480 307829.888 10 0 60934 37800.00000 0 -15669825.898 -19889131.965 -2904947.299 10 0 60934 38700.00000 0 -15397692.365 -19382473.472 -6061144.462 10 0 60934 39600.00000 0 -14809241.458 -18637726.093 -9099277.971 10 0 60934 40500.00000 0 -13885668.833 -17709012.859 -11960163.094 10 0 60934 41400.00000 0 -12620690.758 -16654925.228 -14588078.146 10 0 60934 42300.00000 0 -11021053.230 -15535948.655 -16931859.183 10 0 60934 43200.00000 0 -9106498.150 -14411827.266 -18945902.967 10 0 60934 44100.00000 0 -6909187.160 -13338979.997 -20591058.117 10 0 60934 45000.00000 0 -4472606.851 -12368078.039 -21835386.818 10 0 60934 45900.00000 0 -1850000.988 -11541886.158 -22654782.494 10 0 60934 46800.00000 0 897604.725 -10893458.793 -23033431.886 10 0 60934 47700.00000 0 3703702.789 -10444766.424 -22964113.298 10 0 60934 48600.00000 0 6498833.109 -10205809.175 -22448326.080 10 0 60934 49500.00000 0 9213236.038 -10174253.753 -21496249.762 10 0 60934 50400.00000 0 11779519.213 -10335607.659 -20126534.523 10 0 60934 51300.00000 0 14135227.879 -10663921.962 -18365927.847 10 0 60934 52200.00000 0 16225212.709 -11122991.687 -16248745.274 10 0 60934 53100.00000 0 18003697.744 -11668002.131 -13816196.029 10 0 60934 54000.00000 0 19435963.822 -12247550.815 -11115576.990 10 0 60934 54900.00000 0 20499578.957 -12805959.193 -8199350.848 10 0 60934 55800.00000 0 21185126.049 -13285776.280 -5124126.517 10 0 60934 56700.00000 0 21496399.327 -13630368.475 -1949561.585 10 0 60934 57600.00000 0 21450062.954 -13786486.426 1262791.961 10 0 60934 58500.00000 0 21074787.629 -13706700.873 4450676.469 10 0 60934 59400.00000 0 20409902.556 -13351605.027 7552329.037 10 0 60934 60300.00000 0 19503620.250 -12691690.909 10507670.728 10 0 60934 61200.00000 0 18410909.109 -11708820.683 13259462.027 10 0 60934 62100.00000 0 17191103.183 -10397230.967 15754402.811 10 0 60934 63000.00000 0 15905349.138 -8764027.435 17944156.291 10 0 60934 63900.00000 0 14613996.967 -6829148.103 19786277.906 10 0 60934 64800.00000 0 13374043.100 -4624795.606 21245032.004 10 0 60934 65700.00000 0 12236732.220 -2194360.533 22292081.252 10 0 60934 66600.00000 0 11245417.464 409121.135 22907035.960 10 0 60934 67500.00000 0 10433767.972 3124914.372 23077853.006 10 0 60934 68400.00000 0 9824398.449 5886856.425 22801076.589 10 0 60934 69300.00000 0 9427978.074 8625860.750 22081915.749 10 0 60934 70200.00000 0 9242856.331 11272551.387 20934156.416 10 0 60934 71100.00000 0 9255222.006 13759919.819 19379908.583 10 0 60934 72000.00000 0 9439789.417 16025894.881 17449192.235 10 0 60934 72900.00000 0 9760983.903 18015719.395 15179368.666 10 0 60934 73800.00000 0 10174577.489 19684034.619 12614426.824 10 0 60934 74700.00000 0 10629706.401 20996585.264 9804137.432 10 0 60934 75600.00000 0 11071185.584 21931473.252 6803090.423 10 0 60934 76500.00000 0 11442022.303 22479907.099 3669633.958 10 0 60934 77400.00000 0 11686021.910 22646414.804 464735.739 10 0 60934 78300.00000 0 11750374.430 22448510.939 -2749210.771 10 0 60934 79200.00000 0 11588111.013 21915831.765 -5909611.093 10 0 60934 80100.00000 0 11160324.527 21088775.075 -8954900.381 10 0 60934 81000.00000 0 10438058.446 20016702.708 -11825754.651 10 0 60934 81900.00000 0 9403782.336 18755782.467 -14466257.683 10 0 60934 82800.00000 0 8052389.930 17366561.613 -16824999.586 10 0 60934 83700.00000 0 6391676.271 15911375.469 -18856084.692 10 0 60934 84600.00000 0 4442272.755 14451701.488 -20520028.553 10 0 60934 85500.00000 0 2237042.032 13045571.132 -21784526.315 10 0 60935 0.00000 0 -180042.050 11745149.128 -22625077.620 10 0 60935 900.00000 0 -2755484.116 10594581.325 -23025456.738 10 0 60935 1800.00000 0 -5428256.899 9628202.928 -22978018.465 10 0 60935 2700.00000 0 -8132112.081 8869179.193 -22483836.230 10 0 60935 3600.00000 0 -10798112.972 8328636.188 -21552669.428 10 0 60935 4500.00000 0 -13357284.950 8005315.872 -20202762.046 10 0 60935 5400.00000 0 -15743273.579 7885768.406 -18460477.194 10 0 60935 6300.00000 0 -17894900.414 7945071.859 -16359775.297 10 0 60935 7200.00000 0 -19758510.981 8148047.468 -13941546.588 10 0 60935 8100.00000 0 -21290018.249 8450917.844 -11252811.222 10 0 60935 9000.00000 0 -22456557.764 8803337.161 -8345802.758 10 0 60935 9900.00000 0 -23237686.787 9150706.938 -5276952.929 10 0 60935 10800.00000 0 -23626078.888 9436679.218 -2105797.430 10 0 60935 11700.00000 0 -23627686.444 9605741.309 1106176.113 10 0 60935 12600.00000 0 -23261365.576 9605773.019 4296715.765 10 0 60935 13500.00000 0 -22557980.431 9390468.602 7404005.720 10 0 60935 14400.00000 0 -21559025.187 8921521.454 10367856.662 10 0 60935 15300.00000 0 -20314822.079 8170479.603 13130863.457 10 0 60935 16200.00000 0 -18882371.152 7120193.795 15639508.380 10 0 60935 17100.00000 0 -17322941.607 5765796.956 17845189.292 10 0 60935 18000.00000 0 -15699505.118 4115173.223 19705153.625 10 0 60935 18900.00000 0 -14074117.788 2188895.798 21183320.939 10 0 60935 19800.00000 0 -12505359.311 19634.736 22250978.890 10 0 60935 20700.00000 0 -11045935.475 -2348942.410 22887339.662 10 0 60935 21600.00000 0 -9740543.323 -4863733.326 23079946.434 10 0 60935 22500.00000 0 -8624087.452 -7464164.213 22824921.989 10 0 60935 23400.00000 0 -7720321.589 -10084474.060 22127054.256 10 0 60935 24300.00000 0 -7040972.065 -12656226.954 20999716.406 10 0 60935 25200.00000 0 -6585380.005 -15110949.649 19464621.958 10 0 60935 26100.00000 0 -6340677.600 -17382785.920 17551418.392 10 0 60935 27000.00000 0 -6282491.586 -19411057.939 15297125.723 10 0 60935 27900.00000 0 -6376144.888 -21142628.204 12745429.599 10 0 60935 28800.00000 0 -6578306.328 -22533963.161 9945841.440 10 0 60935 29700.00000 0 -6839019.022 -23552811.686 6952741.106 10 0 60935 30600.00000 0 -7104021.702 -24179427.325 3824320.199 10 0 60935 31500.00000 0 -7317264.285 -24407282.126 621446.599 10 0 60935 32400.00000 0 -7423510.249 -24243241.318 -2593527.212 10 0 60935 33300.00000 0 -7370914.297 -23707190.942 -5757987.990 10 0 60935 34200.00000 0 -7113464.456 -22831133.933 -8810292.670 10 0 60935 35100.00000 0 -6613183.375 -21657792.946 -11690981.115 10 0 60935 36000.00000 0 -5841993.798 -20238779.349 -14343945.689 10 0 60935 36900.00000 0 -4783167.565 -18632406.458 -16717533.599 10 0 60935 37800.00000 0 -3432295.417 -16901240.108 -18765559.618 10 0 60935 38700.00000 0 -1797735.431 -15109490.762 -20448208.804 10 0 60935 39600.00000 0 99479.684 -13320357.732 -21732811.418 10 0 60935 40500.00000 0 2226273.196 -11593437.756 -22594475.087 10 0 60935 41400.00000 0 4538666.747 -9982306.907 -23016562.400 10 0 60935 42300.00000 0 6983386.899 -8532377.045 -22991005.365 10 0 60935 43200.00000 0 9499868.708 -7279115.932 -22518451.458 10 0 60935 44100.00000 0 12022572.778 -6246704.361 -21608239.395 10 0 60935 45000.00000 0 14483519.225 -5447185.042 -20278205.957 10 0 60935 45900.00000 0 16814933.213 -4880137.045 -18554328.429 10 0 60935 46800.00000 0 18951892.246 -4532887.469 -16470210.251 10 0 60935 47700.00000 0 20834865.508 -4381249.509 -14066420.397 10 0 60935 48600.00000 0 22412040.226 -4390754.023 -11389699.651 10 0 60935 49500.00000 0 23641339.034 -4518321.228 -8492049.435 10 0 60935 50400.00000 0 24492045.273 -4714300.820 -5429720.996 10 0 60935 51300.00000 0 24945969.562 -4924793.609 -2262124.635 10 0 60935 52200.00000 0 24998110.102 -5094156.163 949319.983 10 0 60935 53100.00000 0 24656780.290 -5167582.477 4142370.198 10 0 60935 54000.00000 0 23943199.283 -5093653.681 7255160.691 10 0 60935 54900.00000 0 22890563.484 -4826748.309 10227394.874 10 0 60935 55800.00000 0 21542638.297 -4329211.599 13001504.727 10 0 60935 56700.00000 0 19951929.301 -3573192.473 15523757.233 10 0 60935 57600.00000 0 18177509.149 -2542070.704 17745286.755 10 0 60935 58500.00000 0 16282590.611 -1231413.845 19623034.114 10 0 60935 59400.00000 0 14331946.362 350577.104 21120575.053 10 0 60935 60300.00000 0 12389282.309 2183153.186 22208822.770 10 0 60935 61200.00000 0 10514672.997 4233632.201 22866591.480 10 0 60935 62100.00000 0 8762165.035 6458518.901 23081010.442 10 0 60935 63000.00000 0 7177647.513 8805086.135 22847780.433 10 0 60935 63900.00000 0 5797077.531 11213353.253 22171267.322 10 0 60935 64800.00000 0 4645134.391 13618381.504 21064430.230 10 0 60935 65700.00000 0 3734358.446 15952792.755 19548584.608 10 0 60935 66600.00000 0 3064810.658 18149408.056 17653003.562 10 0 60935 67500.00000 0 2624267.369 20143897.080 15414363.746 10 0 60935 68400.00000 0 2388942.387 21877328.350 12876045.217 10 0 60935 69300.00000 0 2324706.347 23298513.579 10087297.666 10 0 60935 70200.00000 0 2388752.125 24366047.524 7102288.327 10 0 60935 71100.00000 0 2531635.890 25049956.979 3979049.598 10 0 60935 72000.00000 0 2699607.104 25332888.628 778346.840 10 0 60935 72900.00000 0 2837128.022 25210784.812 -2437511.145 10 0 60935 73800.00000 0 2889474.793 24693017.836 -5605894.980 10 0 60935 74700.00000 0 2805308.429 23801976.583 -8665085.897 10 0 60935 75600.00000 0 2539104.975 22572122.590 -11555489.919 10 0 60935 76500.00000 0 2053340.155 21048555.495 -14220810.067 10 0 60935 77400.00000 0 1320334.258 19285148.783 -16609152.469 10 0 60935 78300.00000 0 323677.682 17342335.060 -18674043.878 10 0 60935 79200.00000 0 -940824.387 15284634.852 -20375340.137 10 0 60935 80100.00000 0 -2464729.003 13178033.622 -21680007.641 10 0 60935 81000.00000 0 -4227072.714 11087317.737 -22562762.701 10 0 60935 81900.00000 0 -6195024.546 9073481.360 -23006556.861 10 0 60935 82800.00000 0 -8325047.546 7191312.815 -23002899.399 10 0 60935 83700.00000 0 -10564520.272 5487260.834 -22552011.645 10 0 60935 84600.00000 0 -12853750.480 3997668.851 -21662811.039 10 0 60935 85500.00000 0 -15128296.835 2747449.730 -20352726.139 10 0 60936 0.00000 0 -17321501.655 1749254.573 -18647347.146 10 0 60936 900.00000 0 -19367130.394 1003167.811 -16579918.421 10 0 60936 1800.00000 0 -21202005.176 496940.472 -14190685.721 10 0 60936 2700.00000 0 -22768526.941 206747.913 -11526108.166 10 0 60936 3600.00000 0 -24016978.680 98439.625 -8637952.616 10 0 60936 4500.00000 0 -24907515.558 129226.286 -5582287.363 10 0 60936 5400.00000 0 -25411759.486 249731.791 -2418394.816 10 0 60936 6300.00000 0 -25513932.432 406322.816 792375.796 10 0 60936 7200.00000 0 -25211481.970 543617.069 3987793.556 10 0 60936 8100.00000 0 -24515173.742 607064.114 7105946.074 10 0 60936 9000.00000 0 -23448647.580 545489.855 10086431.903 10 0 60936 9900.00000 0 -22047456.289 313497.422 12871522.491 10 0 60936 10800.00000 0 -20357627.418 -126376.601 15407271.779 10 0 60936 11700.00000 0 -18433807.909 -801841.416 17644552.710 10 0 60936 12600.00000 0 -16337068.610 -1729443.526 19540001.344 10 0 60936 13500.00000 0 -14132459.485 -2913630.206 21056851.145 10 0 60936 14400.00000 0 -11886416.388 -4346325.156 22165642.036 10 0 60936 15300.00000 0 -9664126.323 -6007035.408 22844791.062 10 0 60936 16200.00000 0 -7526959.701 -7863486.724 23081013.970 10 0 60936 17100.00000 0 -5530075.310 -9872762.927 22869589.552 10 0 60936 18000.00000 0 -3720296.809 -11982903.734 22214461.283 10 0 60936 18900.00000 0 -2134348.386 -14134896.595 21128173.576 10 0 60936 19800.00000 0 -797522.691 -16264981.455 19631642.852 10 0 60936 20700.00000 0 277163.592 -18307173.911 17753766.589 10 0 60936 21600.00000 0 1089291.226 -20195902.671 15530876.557 10 0 60936 22500.00000 0 1650823.381 -21868651.783 13006045.451 10 0 60936 23400.00000 0 1985362.904 -23268497.165 10228259.222 10 0 60936 24300.00000 0 2126913.093 -24346430.808 7251470.274 10 0 60936 25200.00000 0 2118194.304 -25063374.275 4133549.430 10 0 60936 26100.00000 0 2008587.859 -25391795.767 935157.042 10 0 60936 27000.00000 0 1851794.946 -25316861.505 -2281444.352 10 0 60936 27900.00000 0 1703310.675 -24837071.718 -5453611.901 10 0 60936 28800.00000 0 1617821.713 -23964353.455 -8519553.826 10 0 60936 29700.00000 0 1646639.382 -22723605.622 -11419545.029 10 0 60936 30600.00000 0 1835278.707 -21151715.103 -14097101.884 10 0 60936 31500.00000 0 2221287.650 -19296085.489 -16500092.038 10 0 60936 32400.00000 0 2832419.961 -17212740.737 -18581756.657 10 0 60936 33300.00000 0 3685230.191 -14964084.071 -20301624.533 10 0 60936 34200.00000 0 4784151.222 -12616406.933 -21626299.998 10 0 60936 35100.00000 0 6121093.889 -10237253.023 -22530109.430 10 0 60936 36000.00000 0 7675585.982 -7892748.180 -22995594.223 10 0 60936 36900.00000 0 9415444.974 -5645007.854 -23013841.340 10 0 60936 37800.00000 0 11297956.218 -3549730.056 -22584645.898 10 0 60936 38700.00000 0 13271507.212 -1654073.465 -21716503.550 10 0 60936 39600.00000 0 15277609.362 5092.049 -20426433.702 10 0 60936 40500.00000 0 17253222.642 1402491.158 -18739637.823 10 0 60936 41400.00000 0 19133286.014 2525252.573 -16689000.122 10 0 60936 42300.00000 0 20853347.961 3373190.644 -14314440.823 10 0 60936 43200.00000 0 22352187.525 3958549.595 -11662134.965 10 0 60936 44100.00000 0 23574316.716 4305223.282 -8783612.099 10 0 60936 45000.00000 0 24472260.203 4447485.245 -5734754.518 10 0 60936 45900.00000 0 25008517.580 4428284.130 -2574713.475 10 0 60936 46800.00000 0 25157126.822 4297177.552 635235.625 10 0 60936 47700.00000 0 24904764.153 4107992.371 3832876.996 10 0 60936 48600.00000 0 24251334.930 3916310.597 6956254.455 10 0 60936 49500.00000 0 23210031.261 3776887.148 9944864.758 10 0 60936 50400.00000 0 21806854.237 3741108.357 12740821.577 10 0 60936 51300.00000 0 20079620.741 3854598.220 15289968.214 10 0 60936 52200.00000 0 18076496.032 4155073.044 17542918.205 10 0 60936 53100.00000 0 15854112.773 4670534.799 19456004.472 10 0 60936 54000.00000 0 13475354.056 5417879.262 20992119.427 10 0 60936 54900.00000 0 11006891.633 6401977.991 22121430.551 10 0 60936 55800.00000 0 8516580.565 7615273.521 22821958.165 10 0 60936 56700.00000 0 6070817.291 9037906.036 23080004.542 10 0 60936 57600.00000 0 3731969.625 10638367.929 22890426.122 10 0 60936 58500.00000 0 1555984.376 12374660.760 22256743.187 10 0 60936 59400.00000 0 -409728.898 14195908.304 21191084.220 10 0 60936 60300.00000 0 -2128050.635 16044360.297 19713964.985 10 0 60936 61200.00000 0 -3573467.877 17857704.865 17853905.346 10 0 60936 62100.00000 0 -4732899.994 19571594.334 15646889.893 10 0 60936 63000.00000 0 -5605998.987 21122279.621 13135681.430 10 0 60936 63900.00000 0 -6204911.691 22449243.115 10368999.469 10 0 60936 64800.00000 0 -6553513.812 23497719.395 7400578.781 10 0 60936 65700.00000 0 -6686148.105 24220997.143 4288125.757 10 0 60936 66600.00000 0 -6645920.217 24582404.310 1092192.880 10 0 60936 67500.00000 0 -6482624.797 24556891.578 -2125006.401 10 0 60936 68400.00000 0 -6250390.545 24132145.985 -5300818.489 10 0 60936 69300.00000 0 -6005145.159 23309186.429 -8373381.178 10 0 60936 70200.00000 0 -5802009.086 22102414.872 -11282840.626 10 0 60936 71100.00000 0 -5692730.093 20539120.353 -13972528.681 10 0 60936 72000.00000 0 -5723268.983 18658456.351 -16390076.353 10 0 60936 72900.00000 0 -5931640.182 16509934.541 -18488440.753 10 0 60936 73800.00000 0 -6346099.787 14151498.521 -20226824.867 10 0 60936 74700.00000 0 -6983758.653 11647258.844 -21571471.919 10 0 60936 75600.00000 0 -7849679.696 9064984.745 -22496319.014 10 0 60936 76500.00000 0 -8936497.786 6473457.870 -22983497.771 10 0 60936 77400.00000 0 -10224578.312 3939798.765 -23023672.896 10 0 60936 78300.00000 0 -11682707.619 1526877.442 -22616213.006 10 0 60936 79200.00000 0 -13269286.075 -709084.608 -21769191.296 10 0 60936 80100.00000 0 -14933973.447 -2720622.086 -20499216.964 10 0 60936 81000.00000 0 -16619717.346 -4470756.859 -18831101.457 10 0 60936 81900.00000 0 -18265079.620 -5934281.966 -16797366.708 10 0 60936 82800.00000 0 -19806763.209 -7098547.114 -14437605.420 10 0 60936 83700.00000 0 -21182233.699 -7963715.179 -11797706.200 10 0 60936 84600.00000 0 -22332326.071 -8542481.220 -8928958.777 10 0 60936 85500.00000 0 -23203727.746 -8859267.957 -5887056.831 99